Theta_e
320 323 323 322 321 320 318 317 317 317 316 315 315 316 316 309 308 307 310 312 314 316 311 311 311 311 310 313 315 313 316 315 315 318 320 319 318 319 320 318 319 320 318 313 314 316 316 323 327 334 327 327 329 329
317 316 318 319 319 319 318 317 317 315 314 314 314 315 314 307 308 307 311 312 312 312 312 311 308 308 310 311 313 311 314 315 312 316 312 314 318 317 318 319 316 320 318 320 315 319 323 320 319 315 316 323 326 327
312 313 314 315 317 318 317 315 313 312 312 312 313 314 311 308 308 308 311 311 311 312 312 310 311 309 311 311 312 316 313 312 311 308 313 314 317 314 317 318 317 316 316 319 320 321 321 317 314 312 312 320 322 325
311 312 313 313 313 314 312 311 311 311 311 312 313 311 307 308 307 309 312 312 311 310 312 311 309 311 310 312 312 312 311 307 307 309 313 316 314 312 316 315 316 316 316 315 316 318 318 317 315 311 312 317 321 324
311 312 313 312 311 311 310 311 310 311 312 312 310 308 308 307 309 310 310 311 312 312 314 312 309 308 308 309 309 309 310 310 311 311 314 316 312 313 310 311 314 314 315 315 318 313 312 316 312 311 313 318 319 322
310 310 310 310 310 310 310 311 311 312 310 310 308 308 307 308 310 311 314 310 311 311 314 313 307 311 308 309 310 310 310 309 310 312 311 309 308 312 314 315 312 312 312 312 313 309 311 310 310 311 316 316 318 321
310 310 310 310 310 310 311 311 310 309 308 308 308 307 307 310 312 311 312 310 311 312 314 312 315 310 310 311 312 313 313 313 313 311 313 312 311 310 312 315 311 311 311 311 310 310 311 311 315 312 313 315 319 322
310 310 310 311 312 311 310 309 308 307 308 308 307 308 311 312 311 312 310 310 311 311 312 312 312 313 311 315 316 311 316 315 315 314 311 313 308 310 312 311 309 310 310 309 309 309 310 309 310 313 314 317 319 322
311 311 311 311 311 306 306 306 306 307 307 307 310 310 311 311 312 310 309 311 312 312 316 314 317 317 311 312 314 314 314 319 313 318 316 313 311 316 314 312 311 310 309 308 307 307 309 310 311 314 313 316 318 319
311 311 311 309 306 306 305 306 307 307 307 308 309 310 314 310 309 310 310 312 312 311 312 317 310 316 312 315 316 318 316 319 321 319 312 315 317 313 309 309 308 307 306 305 308 309 311 312 314 313 314 314 317 319
311 310 308 306 305 306 306 307 306 306 309 311 312 313 310 310 310 312 313 314 313 315 312 312 314 314 310 316 318 315 320 318 320 320 319 319 319 314 308 308 307 306 306 308 308 309 310 310 311 312 313 314 316 318
305 305 305 305 306 306 306 306 308 311 311 311 311 310 310 312 314 315 315 314 315 316 313 315 314 314 311 313 317 316 320 318 320 316 319 320 316 310 308 308 307 306 307 308 307 308 308 309 309 310 312 314 315 314
306 305 305 306 307 306 307 311 312 311 311 312 312 313 314 313 315 315 316 316 316 314 314 315 316 316 314 315 319 320 321 321 317 319 319 319 312 308 308 308 308 308 308 307 307 308 308 308 310 311 312 312 312 312
305 305 306 307 306 310 311 311 312 312 314 317 316 312 315 315 314 314 315 316 315 315 315 315 318 317 318 320 321 320 320 319 321 321 322 316 310 308 308 308 308 308 307 307 307 307 307 308 308 308 309 309 307 306
304 305 307 306 309 310 310 311 312 313 313 316 317 319 317 316 317 316 316 317 315 315 317 319 317 317 318 320 320 319 320 321 321 320 319 313 310 308 308 309 308 308 308 308 307 307 306 307 307 307 307 306 306 305
305 305 307 306 308 309 309 310 312 312 313 314 312 315 313 315 315 314 314 314 314 313 315 317 317 317 319 319 320 320 320 318 319 315 311 309 309 308 308 308 308 308 308 307 307 307 307 306 306 306 306 306 305 305
308 306 307 306 307 308 309 311 312 312 312 312 313 312 312 313 313 313 313 314 312 313 314 313 315 313 311 318 318 318 319 316 316 312 308 309 308 308 308 307 307 307 308 308 307 308 307 306 305 305 306 306 305 304
306 306 306 307 308 308 310 311 313 312 312 313 314 313 313 312 313 312 312 312 313 310 308 307 304 308 310 312 312 314 313 310 310 310 309 308 307 306 306 307 307 306 307 308 308 307 307 308 308 306 305 305 305 305
306 306 307 308 309 311 312 312 312 313 313 312 312 313 313 312 310 307 308 311 312 309 308 307 308 308 307 307 312 312 311 310 311 310 310 308 307 307 307 307 306 306 305 304 305 305 306 307 308 308 307 307 307 306
306 307 307 308 310 312 312 312 311 313 314 312 313 314 313 312 307 307 308 309 308 309 309 310 310 309 310 309 309 309 310 310 310 310 309 309 308 308 308 307 305 304 302 303 304 304 305 304 305 306 308 307 308 307
306 307 307 309 310 312 313 312 313 310 311 312 312 312 311 310 309 309 309 307 309 308 309 308 308 308 307 307 308 308 308 308 308 308 307 308 307 306 307 306 306 304 304 303 304 303 304 304 304 305 306 307 306 307
307 307 308 309 311 314 316 312 314 310 312 312 312 311 312 313 311 310 307 309 309 308 308 308 308 307 308 308 306 307 307 307 307 306 306 307 308 308 306 305 305 306 304 304 304 304 303 303 303 303 303 302 302 303
308 309 310 312 315 310 314 311 315 314 314 314 311 312 313 312 311 307 309 308 308 306 305 307 306 306 307 306 305 304 305 306 306 306 306 304 303 302 302 302 303 304 303 301 302 303 303 302 302 303 303 303 304 303
310 311 315 316 315 316 316 318 315 315 313 313 314 314 313 311 309 310 311 311 308 306 307 307 307 308 307 307 308 305 304 304 304 303 303 303 303 302 302 302 302 303 302 301 302 302 303 303 302 303 303 303 303 303
313 313 314 311 316 317 316 319 318 318 318 315 315 314 312 309 311 311 312 311 309 308 307 306 307 307 306 306 305 304 302 304 305 305 302 302 301 301 301 301 301 301 300 301 302 302 302 302 302 302 302 302 302 303
315 316 314 318 317 318 320 319 319 319 317 317 316 312 310 310 311 311 311 309 308 308 307 307 307 307 307 305 307 306 305 303 304 305 302 302 302 303 303 303 303 301 301 302 302 302 302 302 302 301 301 301 300 301
317 320 318 316 318 319 321 319 317 316 317 316 314 312 313 315 315 313 309 307 308 307 306 306 306 307 307 307 304 302 302 302 303 303 301 301 301 301 302 302 302 301 301 301 302 302 302 301 301 301 301 301 301 301
317 320 322 316 320 316 313 313 316 316 315 313 313 314 315 315 315 311 309 306 307 306 306 306 306 306 306 306 302 301 300 300 300 301 300 301 301 300 300 301 301 301 301 301 301 301 301 301 302 302 302 302 302 302
317 321 319 312 311 313 314 314 313 312 311 313 314 313 313 311 309 309 306 305 305 305 306 305 304 304 304 301 301 301 301 302 303 304 303 302 301 300 300 300 300 300 300 301 301 301 301 301 301 301 301 301 301 301
322 319 313 313 313 313 312 310 310 309 308 309 309 309 308 308 306 304 305 305 306 307 308 307 304 305 303 302 301 300 300 301 302 301 302 303 302 301 300 300 300 300 300 300 301 301 301 300 300 300 301 301 302 302
314 311 312 312 313 311 309 309 308 308 308 309 307 309 309 309 307 305 306 307 306 305 305 304 303 303 303 303 303 302 302 301 301 301 302 302 301 301 301 301 301 301 301 301 301 301 301 300 301 301 301 302 303 302
312 313 314 313 312 309 308 310 310 311 310 310 309 308 308 309 310 308 306 305 305 305 304 304 304 303 303 303 303 303 302 303 301 302 302 302 302 302 302 302 302 302 302 301 302 302 302 301 302 302 302 303 303 302
312 312 311 311 311 311 310 312 312 312 311 311 311 309 309 309 309 308 307 306 307 306 305 304 304 304 303 303 303 303 303 302 302 302 302 302 301 302 302 302 302 302 302 302 303 303 303 303 303 302 302 302 301 301
Wind_Speed
27 25 23 24 25 25 25 24 24 23 21 17 16 18 19 17 14 11 3 11 3 1 1 3 3 4 4 4 5 6 4 2 2 3 2 2 2 3 2 2 2 2 3 4 6 9 13 10 2 3 4 7 7 9
28 30 27 26 26 26 27 27 26 23 21 19 16 21 20 19 13 10 3 9 9 2 2 1 3 3 2 5 5 3 1 3 3 4 1 3 2 3 3 2 3 4 4 2 4 1 4 5 5 7 8 7 5 7
28 29 29 28 28 29 29 26 24 21 20 18 16 23 20 18 14 12 6 11 5 1 2 2 3 6 8 5 5 4 1 4 4 2 4 2 2 3 4 4 4 4 4 3 4 3 4 2 3 7 11 10 8 8
26 27 28 29 29 29 25 23 21 18 18 15 19 19 18 15 13 11 6 9 3 3 2 3 4 6 6 1 2 3 11 9 7 2 3 2 2 3 2 0 4 3 7 4 7 9 4 6 4 10 13 12 8 9
26 27 28 27 26 24 20 17 17 13 11 16 20 17 15 14 11 10 8 5 5 1 2 3 3 7 7 7 16 15 19 8 3 3 2 2 3 3 1 1 5 6 6 5 4 2 1 4 7 11 10 12 11 9
27 26 25 24 22 18 13 10 7 9 17 21 18 16 17 13 15 5 2 3 4 3 2 4 2 3 7 14 18 13 9 5 3 2 3 2 2 1 3 3 2 8 6 6 3 3 5 9 10 11 9 9 12 10
24 21 19 17 14 10 6 12 17 22 24 22 17 15 13 11 7 2 2 3 3 3 2 4 3 2 4 3 3 3 5 3 2 2 2 3 3 3 2 3 3 9 8 7 6 5 8 8 3 5 8 11 12 8
16 13 11 8 3 14 17 21 22 24 22 21 16 14 12 11 10 4 6 5 5 5 2 3 3 3 4 2 3 1 2 2 2 3 2 3 3 2 4 6 3 4 6 7 7 8 12 9 8 5 5 7 8 7
5 6 11 16 22 22 20 17 16 17 18 19 18 17 7 1 2 2 4 5 8 3 3 2 6 5 5 2 2 2 0 2 1 2 3 5 2 5 4 5 6 4 2 5 7 7 8 8 8 1 2 4 1 5
15 15 20 23 19 17 14 15 16 18 19 17 6 2 2 1 7 6 1 1 2 3 2 1 1 3 7 3 3 3 1 3 3 2 5 3 4 2 4 4 3 1 0 1 5 4 8 8 5 3 2 3 4 2
18 19 18 16 15 14 14 15 18 17 8 1 1 2 3 5 2 2 2 1 1 1 1 1 3 5 4 6 4 3 3 3 3 3 3 3 3 4 8 6 4 5 3 2 1 1 1 2 1 1 1 3 5 2
13 13 12 13 14 16 17 16 11 1 2 3 8 6 3 2 2 2 2 1 2 1 2 2 3 2 4 3 3 3 3 3 3 6 3 3 3 9 10 7 6 5 4 6 6 4 3 1 3 4 4 4 2 3
10 10 11 13 18 19 14 6 6 10 7 2 2 2 1 1 2 3 4 1 1 3 3 3 3 3 2 3 3 3 5 4 6 4 3 3 9 11 10 9 9 9 9 8 9 9 7 2 2 1 2 2 4 5
9 10 11 17 19 13 9 8 5 2 2 1 1 3 1 2 1 1 0 1 0 1 1 2 2 4 2 4 3 5 3 4 5 4 5 5 14 15 12 11 12 12 13 12 11 11 12 10 9 8 6 8 13 13
9 10 13 16 14 9 8 7 5 4 2 2 2 2 3 3 1 2 1 2 2 1 2 2 2 2 3 3 2 4 5 5 5 4 3 7 16 15 14 12 12 11 10 10 10 12 10 13 14 16 15 19 19 16
10 7 7 16 12 4 6 6 5 3 2 2 4 2 3 1 2 2 2 2 1 2 2 3 2 2 3 3 6 6 5 6 3 2 3 12 15 14 14 11 12 12 10 7 5 9 13 14 14 16 19 19 21 20
2 2 12 15 9 2 5 4 4 3 3 3 2 0 2 2 2 2 2 1 3 1 2 2 3 3 4 2 3 3 3 3 3 3 6 13 16 14 13 12 10 8 7 6 5 7 11 11 10 15 13 15 15 16
3 12 15 12 5 2 4 5 2 2 3 1 1 3 3 2 4 3 2 1 2 2 1 2 1 1 1 2 2 2 4 5 5 6 7 10 13 14 14 11 8 6 4 4 5 8 10 11 10 9 12 12 13 13
13 17 13 8 2 2 2 3 3 2 1 0 2 2 2 2 1 4 2 1 3 5 5 3 2 2 1 2 3 5 5 6 7 7 8 13 14 13 12 10 8 8 6 5 4 7 9 11 8 9 10 9 9 9
17 15 10 3 4 0 1 2 2 1 1 1 1 2 2 2 3 2 3 2 1 1 4 3 3 2 2 3 3 5 7 8 9 8 7 6 10 16 10 9 9 10 9 7 7 9 10 10 7 10 10 12 10 9
10 8 5 4 2 2 1 1 2 1 1 0 2 2 2 2 4 4 4 3 3 3 3 3 3 3 7 6 6 11 10 12 7 7 7 7 13 13 3 5 6 7 9 8 8 7 7 7 7 8 10 7 6 8
4 8 2 3 2 1 1 1 1 2 1 1 0 1 1 2 3 3 3 5 3 3 2 2 2 2 5 6 7 8 9 13 13 13 10 12 6 6 5 5 6 7 5 8 8 9 8 7 7 7 6 5 4 5
7 1 1 2 1 1 1 2 1 2 1 2 1 1 0 0 1 1 2 2 2 2 1 3 5 7 10 8 11 11 8 12 9 8 9 6 7 5 6 4 5 9 8 6 6 6 7 10 11 8 5 5 7 6
2 1 1 1 2 1 2 2 1 2 2 2 2 2 2 1 0 1 3 2 2 3 3 5 7 5 6 5 4 5 5 6 7 6 4 5 6 7 7 6 6 7 6 7 7 7 7 8 6 5 6 6 4 7
1 1 2 3 2 3 3 2 2 2 2 3 3 2 2 2 2 2 3 4 4 4 5 7 5 5 4 3 4 4 5 3 5 5 4 5 9 8 7 7 7 7 7 9 7 7 6 5 4 4 3 3 3 6
2 4 4 4 3 4 3 2 5 5 3 3 3 3 3 2 3 3 3 7 6 6 7 7 6 4 3 3 3 4 3 3 5 5 5 5 5 4 6 6 7 5 6 4 7 8 8 5 4 4 4 4 4 4
2 3 4 3 2 2 3 3 1 2 4 4 4 5 4 2 3 2 3 7 5 11 15 14 11 9 7 7 5 4 6 7 4 3 10 9 6 5 5 7 7 7 8 8 6 7 7 5 5 3 3 2 1 1
4 3 3 3 3 3 2 1 2 1 1 2 5 4 2 2 1 2 2 10 11 16 14 10 6 4 4 6 8 12 10 11 15 17 14 11 9 9 10 10 11 10 9 7 7 6 6 6 6 5 2 2 2 4
3 3 3 3 2 3 1 1 1 1 1 3 1 1 2 2 1 1 4 11 16 17 14 10 6 6 7 9 10 8 14 16 15 10 10 6 7 6 10 11 12 11 10 9 8 6 5 5 4 4 5 6 6 5
3 4 2 1 0 1 2 1 1 2 1 2 2 2 2 2 3 1 10 15 16 14 11 8 10 12 14 15 11 8 7 8 11 12 8 6 7 8 9 9 8 8 9 9 9 8 9 9 8 7 6 5 4 2
2 2 1 1 1 1 2 3 3 2 2 2 2 2 3 2 4 4 9 12 13 11 10 10 10 11 15 14 14 12 9 10 11 9 6 5 5 5 6 4 7 9 10 10 9 9 9 9 9 8 8 7 6 4
3 3 3 3 2 2 2 1 1 1 1 1 2 2 3 2 3 4 10 12 11 11 10 14 14 13 14 14 14 13 13 11 14 13 11 10 8 8 7 8 3 3 5 6 6 5 4 5 5 4 3 3 3 4
2 2 2 3 2 3 2 2 1 1 1 2 2 4 3 4 4 7 15 20 17 15 14 15 14 14 19 20 18 17 15 11 10 9 8 10 11 9 4 4 4 3 2 2 2 3 5 6 7 8 8 7 6 5
Wind_Direction
304 304 304 308 310 309 307 303 296 293 287 277 258 237 223 197 201 192 178 192 213 186 113 204 180 137 133 155 154 144 153 158 116 102 148 153 178 162 193 151 170 212 215 210 217 232 238 3 226 263 358 322 335 325
300 300 299 299 300 299 301 299 291 286 280 271 255 229 205 184 190 179 159 193 208 233 52 195 61 57 298 176 132 148 41 135 134 105 156 138 155 174 178 217 193 223 254 279 245 17 35 23 39 353 330 311 316 323
297 299 302 299 296 295 296 296 291 281 276 264 246 213 188 177 180 185 171 170 163 189 119 163 105 35 80 104 139 132 174 137 135 31 134 125 171 168 189 217 186 215 201 240 300 179 222 59 33 2 342 319 340 320
303 299 299 300 298 297 296 295 291 283 276 260 212 179 162 174 179 187 173 184 151 105 137 108 27 47 6 168 173 117 126 101 110 111 97 131 157 215 197 149 234 197 165 212 256 254 304 215 360 357 334 321 356 340
306 301 298 298 297 295 292 291 286 277 267 185 158 148 161 165 173 155 126 135 178 274 114 107 109 29 37 94 95 108 123 117 123 116 111 130 123 158 106 231 231 188 194 198 227 144 209 283 325 340 326 320 344 324
306 304 303 300 297 292 293 290 294 148 144 136 134 146 154 165 157 153 123 69 102 136 131 136 32 33 69 93 91 85 77 72 73 106 107 113 93 190 167 228 222 188 192 203 219 159 254 282 299 304 308 317 321 304
307 305 304 302 299 295 284 139 129 128 127 127 138 150 168 163 149 63 91 120 129 114 103 112 117 74 118 66 63 77 54 80 74 105 111 128 132 199 216 236 162 191 199 215 249 276 269 214 205 322 311 324 328 341
310 314 321 325 82 127 125 122 119 121 127 133 139 143 151 138 118 83 62 73 112 95 61 122 103 166 193 137 129 35 120 134 63 118 148 133 146 205 244 235 205 187 201 241 252 250 257 270 287 285 307 333 2 345
357 62 96 107 113 109 108 116 124 127 133 136 133 127 121 110 88 111 100 85 71 70 132 153 158 172 163 112 99 122 10 150 113 170 161 175 147 223 227 185 184 182 244 294 288 265 261 242 261 276 271 287 323 346
96 105 114 115 114 111 117 128 131 135 139 137 139 152 102 83 123 121 64 67 56 18 45 159 126 141 184 164 127 135 151 150 191 155 132 221 240 217 160 139 114 107 107 147 280 245 220 243 224 217 258 321 309 300
108 113 111 112 117 122 127 132 134 134 136 156 93 74 120 124 134 39 84 73 41 183 179 132 216 143 189 179 143 198 158 163 210 159 216 204 253 167 152 141 114 116 128 138 264 6 350 106 187 235 290 309 308 327
106 107 110 118 123 123 125 131 132 106 106 114 111 115 112 69 65 112 81 110 220 221 179 201 172 204 155 186 140 173 173 180 220 145 200 237 161 149 150 134 113 127 125 85 61 50 10 308 243 254 273 284 327 36
114 111 117 126 129 125 118 98 89 112 105 55 85 92 80 40 88 168 173 199 235 190 189 186 181 177 153 218 117 167 178 186 128 186 228 210 139 151 145 139 127 112 100 74 70 59 69 72 29 45 119 67 74 83
116 118 126 138 133 111 89 90 103 17 14 15 76 47 14 136 219 186 171 17 18 192 185 187 191 205 179 189 161 167 128 147 199 222 223 162 160 153 150 141 130 118 99 91 77 62 54 59 90 73 83 91 94 80
119 121 137 147 140 107 69 51 33 31 38 40 347 60 58 6 11 51 29 11 34 325 333 212 194 223 181 151 182 121 185 210 203 220 167 144 153 152 151 148 141 138 126 107 89 75 68 63 69 70 77 84 88 90
109 112 149 160 159 97 28 15 17 29 57 44 33 34 339 229 65 13 341 330 1 322 266 245 149 182 249 213 178 193 195 200 201 160 124 146 150 156 153 153 152 145 144 137 119 96 88 88 77 69 68 73 76 69
61 93 151 158 159 103 1 354 14 52 58 43 11 6 308 259 297 308 311 277 314 309 343 4 173 194 310 218 225 211 168 116 110 97 142 155 153 153 152 155 161 160 164 170 160 126 122 112 110 100 83 69 81 77
78 137 143 145 141 14 358 23 61 75 79 58 320 342 305 283 296 313 309 350 329 88 53 78 17 81 360 318 306 310 77 81 86 108 118 126 132 139 149 158 172 190 213 191 196 176 172 160 135 126 137 122 109 103
143 140 140 133 57 32 26 36 13 93 77 35 304 304 301 319 308 310 279 75 62 106 134 149 63 38 3 257 29 85 104 110 101 93 88 101 123 131 129 137 139 143 145 120 126 133 159 183 180 167 154 148 156 153
143 144 146 145 3 53 112 65 23 82 82 46 291 343 341 358 310 310 28 62 86 71 37 36 40 39 36 12 11 65 83 93 96 95 92 83 105 122 118 139 132 134 124 119 116 119 120 115 128 176 178 174 174 170
146 163 165 333 7 47 78 122 64 38 117 31 350 337 12 6 36 29 26 353 61 34 77 74 70 44 20 40 72 107 99 107 103 110 117 118 115 137 188 126 133 151 152 147 149 137 117 112 117 128 159 183 210 203
137 166 7 7 22 27 210 139 96 127 189 64 29 356 28 31 22 28 338 46 57 53 70 106 85 42 97 78 83 98 106 109 120 132 132 148 166 176 182 181 177 168 159 155 142 138 131 141 146 142 140 141 141 149
128 129 8 12 342 65 86 151 230 174 173 152 175 168 138 62 70 310 78 31 61 39 45 73 94 100 103 98 99 102 116 131 134 144 162 172 158 147 142 142 169 168 152 137 132 119 113 126 131 138 139 140 135 122
123 123 249 235 194 172 161 214 180 160 154 189 198 194 185 174 73 95 112 151 113 134 148 135 127 101 88 90 107 119 145 154 141 138 149 134 120 104 102 105 115 141 139 139 131 127 121 112 109 115 129 132 132 118
346 281 141 269 201 204 214 207 195 203 241 183 205 199 168 174 172 164 158 158 166 154 148 153 150 143 131 126 147 153 163 165 180 139 135 133 124 120 104 99 103 118 138 148 145 135 133 134 140 135 125 129 143 154
248 198 192 203 194 218 199 219 203 202 194 192 201 118 172 179 190 209 191 172 169 169 168 169 162 157 152 150 147 159 162 175 152 145 130 139 130 136 144 142 135 126 157 158 150 149 150 150 158 142 119 106 119 136
281 254 207 227 249 229 245 236 197 213 200 200 164 171 179 216 221 191 138 168 161 172 174 172 174 170 152 144 128 112 130 141 135 112 138 126 106 101 133 133 125 128 136 138 141 150 144 140 145 115 69 47 45 358
250 261 240 161 210 218 270 235 218 230 164 135 153 184 212 224 57 115 149 167 158 156 157 156 148 139 148 150 139 132 122 122 122 121 114 108 115 117 117 120 125 128 133 132 133 139 145 146 151 159 163 163 157 250
244 241 221 234 196 202 238 341 53 64 104 186 220 149 112 63 36 62 143 156 152 150 148 148 143 153 138 134 135 133 138 141 140 138 135 137 141 141 144 143 147 152 159 165 175 184 192 197 203 209 220 231 251 257
242 189 226 197 141 64 53 349 67 96 65 57 93 125 112 75 16 119 150 152 158 165 166 162 157 155 150 150 147 151 161 158 160 158 162 164 155 156 167 173 182 191 199 209 218 224 230 233 234 232 237 254 267 260
164 187 154 116 104 99 117 124 113 110 106 74 52 83 95 94 70 130 165 162 158 150 145 142 149 158 152 159 164 164 175 191 187 184 171 160 177 184 193 205 240 232 234 240 244 241 240 239 237 239 241 236 212 197
192 213 175 131 148 132 168 193 76 91 107 111 130 126 137 118 132 166 195 175 166 168 172 163 163 173 176 179 183 186 191 194 209 214 218 222 233 262 273 293 266 218 221 237 266 285 269 221 219 221 210 207 209 201
150 136 109 122 143 176 161 178 170 144 183 204 198 187 179 165 163 189 189 195 192 187 182 187 183 179 188 192 194 199 207 214 226 242 265 271 269 274 211 178 166 164 157 127 79 73 83 95 101 104 105 109 108 105